Location: Sperry Observatory
(40.6664°N, 74.3236°W)
Time: 03:01:32
(UTC-05:00)

Amateur Radio Satellites - All Passes

Search period start: 20 January 2017 02:31
Search period end: 21 January 2017 02:31
Location: Sperry Observatory, 40.6664°N, 74.3236°W

Satellite Date Start Highest point End Downlink Frequencies (MHz)
Time Altitude Azimuth
BEESAT 20 Jan 02:36:54 02:41:10 33° 263° (W) 02:45:29 436.000
MOZHAYETS 4 20 Jan 02:37:10 02:41:43 73° 76° (ENE) 02:46:19
SWISSCUBE 20 Jan 02:38:41 02:42:48 29° 264° (W) 02:46:56 437.505
PHONESAT 2.4 20 Jan 02:38:42 02:40:55 46° 165° (SSE) 02:43:08 2401.200-2431.200
BEESAT 2 20 Jan 02:38:50 02:42:13 25° 247° (WSW) 02:45:33 435.950
STARS 20 Jan 02:42:38 02:44:31 13° 62° (ENE) 02:46:23 437.465
M-CUBED/EXP-1 PRIME 20 Jan 02:46:16 02:50:38 65° 70° (ENE) 02:54:45 437.505
AIST 2 20 Jan 02:54:14 02:56:18 13° 40° (NE) 02:58:20 435.215
Cosmos 2491 20 Jan 02:55:17 03:03:44 54° 283° (WNW) 03:12:14 435.465 / 435.565
Oscar 19 20 Jan 03:03:57 03:06:54 16° 299° (WNW) 03:09:51 437.125/150
CUSAT 1 20 Jan 03:04:28 03:09:22 74° 97° (E) 03:15:52 437.405
RS-15 20 Jan 03:07:14 03:16:52 26° 341° (NNW) 03:26:39 29.354- 29.394
Gurwin Techsat 1B 20 Jan 03:12:25 03:16:36 24° 295° (WNW) 03:20:46 435.225
KKS-1 20 Jan 03:21:09 03:25:35 71° 75° (ENE) 03:30:01 437.445
CUBESAT XI-V 20 Jan 03:21:44 03:25:55 33° 69° (ENE) 03:30:07 437.345
AUBIESAT-1 20 Jan 03:23:35 03:27:51 59° 253° (WSW) 03:31:52 437.475
ISS 20 Jan 03:28:11 03:30:51 23° 23° (NNE) 03:33:32 145.825
ITAMSAT 1 20 Jan 03:43:49 03:48:54 55° 289° (WNW) 03:53:59 435.822/435.867
Cosmos 2504 20 Jan 03:45:58 03:50:55 20° 280° (W) 03:55:47 435.465 / 435.565
DANDE 20 Jan 03:50:29 03:54:02 48° 93° (E) 03:58:48 436.750
AO-7 20 Jan 03:57:56 04:06:21 90° 153° (SSE) 04:14:42 29.400- 29.500
PHONESAT 2.4 20 Jan 04:12:39 04:14:56 89° 207° (SSW) 04:17:14 2401.200-2431.200
STARS 20 Jan 04:15:59 04:20:19 64° 259° (WSW) 04:24:41 437.465
MOZHAYETS 4 20 Jan 04:18:36 04:19:22 10° 271° (W) 04:20:09
M-CUBED/EXP-1 PRIME 20 Jan 04:23:52 04:25:20 11° 263° (W) 04:26:47 437.505
HORYU 2 20 Jan 04:23:52 04:26:06 14° 92° (E) 04:28:20 437.375
AIST 2 20 Jan 04:31:05 04:35:22 86° 235° (SW) 04:39:35 435.215
CUSAT 1 20 Jan 04:49:01 04:52:25 16° 301° (WNW) 04:56:19 437.405
CUTE-I 20 Jan 04:53:20 04:54:40 11° 89° (E) 04:55:59 437.470
STRAND 1 20 Jan 04:57:21 04:59:13 12° 59° (ENE) 05:01:05 437.568
CUBESAT XI-V 20 Jan 04:59:27 05:03:17 25° 266° (W) 05:07:11 437.345
GONETS M04 20 Jan 04:59:37 05:04:33 16° 60° (ENE) 05:09:28
KKS-1 20 Jan 05:02:04 05:02:36 10° 270° (W) 05:03:08 437.445
ISS 20 Jan 05:04:21 05:07:32 55° 221° (SW) 05:10:43 145.825
BRITE-PL 20 Jan 05:05:12 05:10:09 89° 298° (WNW) 05:14:41 437.365/2234.400
GOMX 1 20 Jan 05:11:54 05:16:03 38° 97° (E) 05:19:59 467.674
LilacSat-2 20 Jan 05:23:52 05:26:52 21° 94° (E) 05:29:51 437.200
RS-15 20 Jan 05:25:40 05:35:18 25° 17° (NNE) 05:44:49 29.354- 29.394
Cubesat XI-IV 20 Jan 05:33:40 05:38:13 28° 95° (E) 05:42:45 437.490
NOAA 18 20 Jan 05:35:20 05:38:27 15° 91° (E) 05:41:33 137.9125
DANDE 20 Jan 05:35:25 05:37:32 13° 301° (WNW) 05:39:57 436.750
NOAA 15 20 Jan 05:44:07 05:49:01 37° 98° (E) 05:53:53 137.62
PHONESAT 2.4 20 Jan 05:46:45 05:48:55 37° 197° (SSW) 05:51:05 2401.200-2431.200
AO-7 20 Jan 05:52:10 05:58:02 22° 308° (NW) 06:03:54 29.400- 29.500
DOVE 4 20 Jan 05:53:14 05:57:12 40° 98° (E) 06:01:05 437.250
HORYU 2 20 Jan 05:58:36 06:02:58 54° 287° (WNW) 06:07:19 437.375
HO-68 20 Jan 06:04:46 06:07:39 13° 88° (E) 06:10:32 435.675
Cosmos 2499 20 Jan 06:05:19 06:12:06 44° 75° (ENE) 06:18:44 435.465 / 435.565
O/OREOS (USA 219) 20 Jan 06:18:09 06:22:37 85° 109° (ESE) 06:27:07 437.305
CUTE-I 20 Jan 06:30:00 06:35:22 87° 280° (W) 06:40:42 437.470
STRAND 1 20 Jan 06:32:32 06:37:37 88° 252° (WSW) 06:42:46 437.568
BRITE-PL 20 Jan 06:47:15 06:47:41 10° 302° (WNW) 06:48:07 437.365/2234.400
GOMX 1 20 Jan 06:50:48 06:53:49 18° 295° (WNW) 06:56:45 467.674
GONETS M04 20 Jan 06:54:06 07:02:59 77° 82° (E) 07:11:50
LilacSat-2 20 Jan 06:57:52 07:01:07 26° 290° (WNW) 07:04:21 437.200
SO-50 20 Jan 07:07:28 07:11:38 31° 114° (ESE) 07:15:46 436.795
PRISM 20 Jan 07:13:03 07:14:42 12° 63° (ENE) 07:16:21 437.425
Cubesat XI-IV 20 Jan 07:13:27 07:18:19 37° 292° (WNW) 07:23:10 437.490
NOAA 18 20 Jan 07:14:09 07:19:35 68° 288° (WNW) 07:24:59 137.9125
CUTE 1.7 + AOD 2 20 Jan 07:14:57 07:19:02 41° 98° (E) 07:23:04 437.475
UWE-3 20 Jan 07:16:53 07:18:09 11° 90° (E) 07:19:25 435.000/436.395/437.385
NOAA 15 20 Jan 07:24:08 07:28:38 28° 294° (WNW) 07:33:06 137.62
CINEMA 3 20 Jan 07:24:33 07:28:45 84° 283° (WNW) 07:33:03 145.822/145.860
DOVE 4 20 Jan 07:31:58 07:34:34 16° 295° (WNW) 07:37:09 437.250
ZACube-1 20 Jan 07:36:37 07:37:46 11° 90° (E) 07:38:55 437.345
RS-15 20 Jan 07:39:19 07:51:29 56° 48° (NE) 08:03:10 29.354- 29.394
CANX-2 20 Jan 07:43:57 07:48:17 78° 283° (WNW) 07:52:34 2200.000
PCSat 20 Jan 07:45:09 07:46:20 11° 36° (NE) 07:47:30 145.827
HO-68 20 Jan 07:49:11 07:56:24 80° 105° (ESE) 08:03:34 435.675
SEEDS 20 Jan 07:55:48 08:00:05 81° 103° (ESE) 08:04:19 437.485
Cosmos 2499 20 Jan 07:58:54 08:04:55 31° 274° (W) 08:10:54 435.465 / 435.565
ANTELSAT 20 Jan 07:59:01 08:00:16 11° 62° (ENE) 08:01:32 437.575/2403.000
O/OREOS (USA 219) 20 Jan 08:01:24 08:02:39 11° 309° (NW) 08:03:56 437.305
COMPASS 1 20 Jan 08:01:55 08:06:06 61° 101° (E) 08:10:14 437.405
Oscar 11 20 Jan 08:11:45 08:15:13 23° 94° (E) 08:18:38 145.826/435.025
CUTE-I 20 Jan 08:12:37 08:14:35 12° 302° (WNW) 08:16:33 437.470
AAUSAT CUBESAT 2 20 Jan 08:13:34 08:17:44 63° 101° (E) 08:21:51 437.432
CUBEBUG 2 20 Jan 08:21:29 08:25:51 86° 281° (W) 08:30:19 437.445
PRISM 20 Jan 08:45:21 08:49:28 61° 259° (W) 08:53:36 437.425
FUNcube-1 20 Jan 08:47:08 08:51:29 63° 100° (E) 08:55:55 145.935
SO-50 20 Jan 08:47:51 08:52:04 32° 311° (NW) 08:56:15 436.795
JAS-2 20 Jan 08:50:18 08:53:48 18° 59° (ENE) 08:57:29 435.910
UWE-3 20 Jan 08:50:38 08:54:58 65° 284° (WNW) 08:59:24 435.000/436.395/437.385
CUTE 1.7 + AOD 2 20 Jan 08:51:40 08:54:32 18° 294° (WNW) 08:57:24 437.475
GONETS M04 20 Jan 08:52:34 08:58:46 22° 281° (W) 09:04:59
UNISAT 6 20 Jan 09:03:37 09:07:47 58° 74° (ENE) 09:11:58 437.425
ZACube-1 20 Jan 09:10:04 09:14:26 67° 285° (WNW) 09:18:52 437.345
TIGRISAT 20 Jan 09:16:59 09:21:13 77° 76° (ENE) 09:25:28 435.000
HUMSAT D 20 Jan 09:24:00 09:27:37 26° 95° (E) 09:31:14 437.325/437.525
PCSat 20 Jan 09:25:40 09:31:00 54° 57° (ENE) 09:36:18 145.827
POPSAT HIP 1 20 Jan 09:29:53 09:30:03 10° 62° (ENE) 09:30:14 437.405
ANTELSAT 20 Jan 09:32:11 09:36:24 67° 258° (WSW) 09:40:40 437.575/2403.000
DELFI C3 20 Jan 09:33:14 09:37:13 62° 101° (E) 09:41:07 145.870
HO-68 20 Jan 09:38:17 09:43:19 21° 304° (WNW) 09:48:20 435.675
COMPASS 1 20 Jan 09:39:28 09:41:06 12° 297° (WNW) 09:42:44 437.405
DUCHIFAT 1 20 Jan 09:39:46 09:41:08 11° 63° (ENE) 09:42:30 145.980
NANOSAT C BR1 20 Jan 09:44:12 09:46:26 14° 64° (ENE) 09:48:41 145.865
Oscar 11 20 Jan 09:47:29 09:51:21 31° 290° (WNW) 09:55:11 145.826/435.025
AAUSAT CUBESAT 2 20 Jan 09:51:13 09:52:38 12° 297° (WNW) 09:54:04 437.432
RS-15 20 Jan 09:52:22 10:03:48 48° 251° (WSW) 10:14:49 29.354- 29.394
ESTCUBE 1 20 Jan 10:13:49 10:15:32 12° 90° (E) 10:17:17 437.505/2401.250
FUNcube-1 20 Jan 10:25:14 10:27:13 13° 296° (WNW) 10:29:13 145.935
JAS-2 20 Jan 10:32:57 10:38:11 64° 259° (W) 10:43:57 435.910
QB50P1 20 Jan 10:34:12 10:38:18 54° 73° (ENE) 10:42:24 145.935-145.965
POLYITAN 1 20 Jan 10:38:15 10:42:23 61° 75° (ENE) 10:46:31 437.675
QB50P2 20 Jan 10:39:27 10:43:37 69° 76° (ENE) 10:47:48 145.880/145.840
UNISAT 6 20 Jan 10:43:27 10:44:52 11° 270° (W) 10:46:18 437.425
HUMSAT D 20 Jan 10:59:33 11:03:08 26° 291° (WNW) 11:06:43 437.325/437.525
BY70-1 20 Jan 11:00:40 11:04:01 89° 275° (W) 11:07:07 436.1900
POPSAT HIP 1 20 Jan 11:01:02 11:05:12 74° 259° (W) 11:09:24 437.405
Oscar 19 20 Jan 11:03:48 11:06:00 13° 59° (ENE) 11:08:13 437.125/150
PCSat 20 Jan 11:10:00 11:13:58 21° 254° (WSW) 11:17:55 145.827
DELFI C3 20 Jan 11:10:30 11:11:27 11° 297° (WNW) 11:12:23 145.870
Cosmos 2491 20 Jan 11:11:06 11:15:55 15° 60° (ENE) 11:20:42 435.465 / 435.565
CUBEBUG 1 20 Jan 11:11:20 11:15:07 29° 96° (E) 11:18:51 437.445
DUCHIFAT 1 20 Jan 11:12:08 11:16:16 64° 259° (W) 11:20:25 145.980
NANOSAT C BR1 20 Jan 11:17:42 11:21:45 49° 260° (W) 11:25:49 145.865
AISAT 20 Jan 11:27:16 11:31:03 28° 96° (E) 11:34:47 437.250
50 SAT 20 Jan 11:42:22 11:45:25 26° 97° (E) 11:48:25 437.505
BUGSAT 1 20 Jan 11:47:29 11:51:33 71° 259° (W) 11:55:35 437.445
ESTCUBE 1 20 Jan 11:48:16 11:52:46 63° 286° (WNW) 11:57:12 437.505/2401.250
CUSAT 1 20 Jan 11:58:09 12:01:23 13° 56° (NE) 12:04:34 437.405
VELOX 1 20 Jan 12:00:14 12:04:37 61° 101° (E) 12:08:55 145.980
QB50P1 20 Jan 12:12:46 12:14:23 12° 269° (W) 12:16:00 145.935-145.965
POLYITAN 1 20 Jan 12:17:43 12:18:33 10° 270° (W) 12:19:24 437.675
TISAT 1 20 Jan 12:25:19 12:26:31 11° 91° (E) 12:27:42 437.305
SPROUT 20 Jan 12:30:04 12:34:21 80° 281° (W) 12:38:35 437.525
UKube-1 20 Jan 12:32:18 12:36:28 46° 100° (E) 12:40:36 .
DX 1 20 Jan 12:32:50 12:37:10 66° 103° (ESE) 12:41:27 434.975-435.025
Oscar 19 20 Jan 12:39:22 12:44:34 86° 256° (WSW) 12:49:49 437.125/150
DANDE 20 Jan 12:47:05 12:48:57 11° 58° (ENE) 12:50:51 436.750
CUBEBUG 1 20 Jan 12:47:46 12:51:16 24° 292° (WNW) 12:54:44 437.445
AO-85 20 Jan 12:51:03 12:54:52 24° 113° (ESE) 12:58:28 145.980
Gurwin Techsat 1B 20 Jan 12:52:31 12:57:46 68° 73° (ENE) 13:03:04 435.225
AIST 1 20 Jan 12:54:51 12:58:05 21° 88° (E) 13:01:19
AISAT 20 Jan 13:03:45 13:07:24 26° 292° (WNW) 13:11:01 437.250
Cosmos 2491 20 Jan 13:05:31 13:14:22 77° 82° (E) 13:23:10 435.465 / 435.565
AO-7 20 Jan 13:05:50 13:12:31 28° 55° (NE) 13:19:13 29.400- 29.500
YUBILEINY 20 Jan 13:11:51 13:19:38 37° 85° (E) 13:27:28 435.215
50 SAT 20 Jan 13:15:59 13:18:26 18° 292° (WNW) 13:20:52 437.505
ITAMSAT 1 20 Jan 13:23:05 13:27:23 27° 66° (ENE) 13:31:41 435.822/435.867
CUSAT 1 20 Jan 13:37:06 13:45:01 60° 76° (ENE) 13:52:19 437.405
VELOX 1 20 Jan 13:38:30 13:40:31 13° 298° (WNW) 13:42:33 145.980
TISAT 1 20 Jan 13:58:24 14:02:30 58° 286° (WNW) 14:06:35 437.305
ITUPSAT 1 20 Jan 14:02:22 14:06:26 27° 96° (E) 14:10:30 437.325
UKube-1 20 Jan 14:09:28 14:12:06 16° 296° (WNW) 14:14:45 .
DX 1 20 Jan 14:11:08 14:12:46 12° 298° (WNW) 14:14:25 434.975-435.025
DANDE 20 Jan 14:25:33 14:33:10 54° 76° (ENE) 14:41:19 436.750
Cosmos 2504 20 Jan 14:27:15 14:35:46 61° 92° (E) 14:43:48 435.465 / 435.565
AO-85 20 Jan 14:30:45 14:35:08 38° 308° (NW) 14:39:13 145.980
AIST 1 20 Jan 14:31:33 14:35:27 31° 284° (WNW) 14:39:22
MOZHAYETS 4 20 Jan 14:33:27 14:36:35 18° 92° (E) 14:39:42
Gurwin Techsat 1B 20 Jan 14:35:20 14:38:12 15° 270° (W) 14:41:04 435.225
BEESAT 20 Jan 14:36:33 14:41:19 62° 101° (ESE) 14:46:03 436.000
SWISSCUBE 20 Jan 14:38:09 14:42:58 73° 102° (ESE) 14:47:45 437.505
BRITE-PL 20 Jan 14:38:54 14:41:56 15° 61° (ENE) 14:44:57 437.365/2234.400
O/OREOS (USA 219) 20 Jan 14:50:16 14:53:10 17° 55° (NE) 14:56:03 437.305
AO-7 20 Jan 14:56:14 15:04:34 72° 254° (WSW) 15:12:58 29.400- 29.500
ITAMSAT 1 20 Jan 15:01:56 15:06:40 36° 262° (W) 15:11:27 435.822/435.867
Cosmos 2491 20 Jan 15:04:00 15:10:10 22° 281° (W) 15:16:23 435.465 / 435.565
YUBILEINY 20 Jan 15:07:44 15:16:09 48° 285° (WNW) 15:24:41 435.215
KKS-1 20 Jan 15:14:00 15:16:13 14° 92° (E) 15:18:25 437.445
CUSAT 1 20 Jan 15:19:49 15:26:24 29° 275° (W) 15:32:34 437.405
HORYU 2 20 Jan 15:22:12 15:24:16 13° 62° (ENE) 15:26:20 437.375
SO-50 20 Jan 15:38:55 15:42:47 27° 47° (NE) 15:46:37 436.795
ITUPSAT 1 20 Jan 15:40:00 15:44:14 32° 292° (WNW) 15:48:29 437.325
BEESAT 3 20 Jan 15:44:28 15:48:07 42° 116° (ESE) 15:51:51 437.485
M-CUBED/EXP-1 PRIME 20 Jan 16:00:10 16:03:22 40° 104° (ESE) 16:06:26 437.505
STARS 20 Jan 16:06:06 16:09:33 22° 95° (E) 16:12:59 437.465
LilacSat-2 20 Jan 16:07:39 16:08:33 11° 64° (ENE) 16:09:26 437.200
DANDE 20 Jan 16:08:43 16:15:39 35° 271° (W) 16:22:58 436.750
MOZHAYETS 4 20 Jan 16:09:31 16:13:57 45° 288° (WNW) 16:18:22
CUTE-I 20 Jan 16:13:36 16:17:18 20° 63° (ENE) 16:21:02 437.470
BRITE-PL 20 Jan 16:13:57 16:19:39 85° 257° (WSW) 16:25:20 437.365/2234.400
BEESAT 20 Jan 16:15:51 16:18:34 15° 298° (WNW) 16:21:16 436.000
SWISSCUBE 20 Jan 16:17:55 16:20:08 13° 299° (WNW) 16:22:21 437.505
GOMX 1 20 Jan 16:18:22 16:23:31 46° 72° (ENE) 16:28:27 467.674
Cosmos 2504 20 Jan 16:22:18 16:29:33 29° 290° (WNW) 16:36:29 435.465 / 435.565
O/OREOS (USA 219) 20 Jan 16:28:30 16:32:53 52° 252° (WSW) 16:37:16 437.305
BEESAT 2 20 Jan 16:29:07 16:32:57 56° 119° (ESE) 16:36:53 435.950
HO-68 20 Jan 16:35:56 16:37:45 11° 49° (NE) 16:39:33 435.675
AUBIESAT-1 20 Jan 16:36:40 16:40:02 75° 288° (WNW) 16:43:18 437.475
KKS-1 20 Jan 16:48:46 16:53:05 54° 287° (WNW) 16:57:23 437.445
CUBESAT XI-V 20 Jan 16:55:09 16:59:52 84° 101° (ESE) 17:04:32 437.345
Cubesat XI-IV 20 Jan 16:55:12 17:00:13 45° 70° (ENE) 17:05:16 437.490
AO-7 20 Jan 16:55:36 16:58:40 12° 273° (W) 17:01:46 29.400- 29.500
HORYU 2 20 Jan 16:55:56 17:00:17 62° 259° (WSW) 17:04:40 437.375
DOVE 4 20 Jan 16:57:32 17:02:16 44° 73° (ENE) 17:06:46 437.250
NOAA 18 20 Jan 17:00:37 17:05:20 30° 65° (ENE) 17:10:02 137.9125
NOAA 15 20 Jan 17:03:41 17:08:51 57° 72° (ENE) 17:14:04 137.62
SO-50 20 Jan 17:19:12 17:23:17 35° 245° (WSW) 17:27:20 436.795
BEESAT 3 20 Jan 17:23:05 17:25:56 19° 314° (NW) 17:28:47 437.485
M-CUBED/EXP-1 PRIME 20 Jan 17:36:32 17:37:28 11° 301° (WNW) 17:38:23 437.505
LilacSat-2 20 Jan 17:38:38 17:42:20 54° 260° (W) 17:46:04 437.200
STARS 20 Jan 17:42:03 17:45:55 31° 291° (WNW) 17:49:46 437.465
CUTE-I 20 Jan 17:51:43 17:56:55 55° 259° (W) 18:02:09 437.470
BRITE-PL 20 Jan 17:57:12 17:58:47 11° 273° (W) 18:00:21 437.365/2234.400
GOMX 1 20 Jan 17:57:33 18:01:42 22° 267° (W) 18:05:46 467.674
GONETS M04 20 Jan 18:02:27 18:07:28 17° 77° (ENE) 18:12:28
CUTE 1.7 + AOD 2 20 Jan 18:07:21 18:10:58 28° 69° (ENE) 18:14:37 437.475
BEESAT 2 20 Jan 18:08:36 18:11:05 16° 317° (NW) 18:13:36 435.950
HO-68 20 Jan 18:16:57 18:23:57 57° 68° (ENE) 18:30:58 435.675
CINEMA 3 20 Jan 18:25:32 18:30:00 83° 74° (ENE) 18:34:17 145.822/145.860
AIST 2 20 Jan 18:29:00 18:32:04 21° 111° (ESE) 18:35:11 435.215
CUBESAT XI-V 20 Jan 18:35:21 18:36:31 11° 300° (WNW) 18:37:41 437.345
CANX-2 20 Jan 18:35:55 18:40:08 69° 75° (ENE) 18:44:23 2200.000
Cubesat XI-IV 20 Jan 18:36:21 18:40:28 23° 266° (W) 18:44:37 437.490
DOVE 4 20 Jan 18:36:26 18:40:04 20° 266° (W) 18:43:36 437.250
Cosmos 2499 20 Jan 18:40:47 18:48:25 39° 88° (E) 18:55:33 435.465 / 435.565
NOAA 18 20 Jan 18:40:48 18:45:51 37° 262° (W) 18:50:55 137.9125
STRAND 1 20 Jan 18:43:36 18:48:13 32° 97° (E) 18:52:47 437.568
NOAA 15 20 Jan 18:45:30 18:48:58 18° 268° (W) 18:52:29 137.62
SEEDS 20 Jan 18:46:45 18:50:50 51° 74° (ENE) 18:54:58 437.485
COMPASS 1 20 Jan 18:52:03 18:55:55 38° 72° (ENE) 18:59:49 437.405
AAUSAT CUBESAT 2 20 Jan 19:03:08 19:07:00 38° 72° (ENE) 19:10:55 437.432
Oscar 11 20 Jan 19:06:46 19:09:37 18° 66° (ENE) 19:12:30 145.826/435.025
CUBEBUG 2 20 Jan 19:19:12 19:23:21 74° 75° (ENE) 19:27:30 437.445
FUNcube-1 20 Jan 19:42:21 19:46:15 43° 72° (ENE) 19:50:12 145.935
CUTE 1.7 + AOD 2 20 Jan 19:43:17 19:46:45 24° 265° (W) 19:50:15 437.475
UWE-3 20 Jan 19:47:09 19:51:17 86° 257° (WSW) 19:55:27 435.000/436.395/437.385
GONETS M04 20 Jan 19:54:12 20:02:55 88° 97° (E) 20:11:44
ZACube-1 20 Jan 20:05:21 20:09:28 90° 84° (E) 20:13:39 437.345
HO-68 20 Jan 20:06:06 20:12:00 27° 266° (W) 20:17:57 435.675
AIST 2 20 Jan 20:06:28 20:10:18 37° 309° (NW) 20:14:12 435.215
HUMSAT D 20 Jan 20:15:35 20:18:20 18° 66° (ENE) 20:21:06 437.325/437.525
DELFI C3 20 Jan 20:18:21 20:21:57 33° 71° (ENE) 20:25:35 145.870
STRAND 1 20 Jan 20:22:51 20:27:17 30° 293° (WNW) 20:31:44 437.568
SEEDS 20 Jan 20:24:50 20:26:49 13° 269° (W) 20:28:50 437.485
PRISM 20 Jan 20:27:57 20:30:46 18° 94° (E) 20:33:33 437.425
COMPASS 1 20 Jan 20:28:48 20:31:35 17° 268° (W) 20:34:25 437.405
Cosmos 2499 20 Jan 20:33:32 20:41:26 43° 285° (WNW) 20:48:49 435.465 / 435.565
AAUSAT CUBESAT 2 20 Jan 20:39:54 20:42:37 17° 268° (W) 20:45:22 437.432
Oscar 11 20 Jan 20:41:20 20:45:25 42° 262° (W) 20:49:32 145.826/435.025
UNISAT 6 20 Jan 20:56:59 20:58:58 13° 91° (E) 21:00:58 437.425
TIGRISAT 20 Jan 21:09:31 21:12:21 16° 93° (E) 21:15:11 435.000
ESTCUBE 1 20 Jan 21:13:40 21:15:19 12° 61° (ENE) 21:16:58 437.505/2401.250
BY70-1 20 Jan 21:15:50 21:17:39 15° 66° (ENE) 21:19:32 436.1900
FUNcube-1 20 Jan 21:20:27 21:22:44 14° 269° (W) 21:25:01 145.935
AO-85 20 Jan 21:22:41 21:25:23 18° 44° (NE) 21:28:04 145.980
ANTELSAT 20 Jan 21:24:07 21:27:49 25° 95° (E) 21:31:33 437.575/2403.000
JAS-2 20 Jan 21:41:35 21:47:01 22° 91° (E) 21:52:39 435.910
ISS 20 Jan 21:43:46 21:46:56 51° 138° (SE) 21:50:06 145.825
HUMSAT D 20 Jan 21:49:50 21:53:38 37° 262° (W) 21:57:30 437.325/437.525
DELFI C3 20 Jan 21:54:03 21:56:50 18° 267° (W) 21:59:38 145.870
GONETS M04 20 Jan 21:55:08 22:00:59 19° 298° (WNW) 22:06:54
PRISM 20 Jan 22:02:24 22:06:09 35° 290° (WNW) 22:09:53 437.425
RS-15 20 Jan 22:03:17 22:13:13 33° 103° (ESE) 22:23:27 29.354- 29.394
CUBEBUG 1 20 Jan 22:07:01 22:10:35 24° 68° (ENE) 22:14:09 437.445
50 SAT 20 Jan 22:18:29 22:19:41 11° 65° (ENE) 22:20:55 437.505
AISAT 20 Jan 22:24:18 22:27:55 25° 68° (ENE) 22:31:32 437.250
QB50P2 20 Jan 22:26:51 22:28:10 11° 90° (E) 22:29:28 145.880/145.840
UNISAT 6 20 Jan 22:31:38 22:36:00 59° 286° (WNW) 22:40:28 437.425
TIGRISAT 20 Jan 22:44:58 22:49:13 45° 287° (WNW) 22:53:32 435.000
BY70-1 20 Jan 22:45:14 22:47:43 24° 265° (W) 22:50:23 436.1900
POPSAT HIP 1 20 Jan 22:46:53 22:49:46 18° 93° (E) 22:52:39 437.405
ESTCUBE 1 20 Jan 22:46:58 22:51:29 73° 257° (WSW) 22:56:03 437.505/2401.250
VELOX 1 20 Jan 22:56:49 23:01:08 52° 73° (ENE) 23:05:28 145.980
DUCHIFAT 1 20 Jan 22:57:03 23:00:09 20° 94° (E) 23:03:15 145.980
ANTELSAT 20 Jan 23:00:38 23:04:30 30° 290° (WNW) 23:08:25 437.575/2403.000
AO-85 20 Jan 23:02:17 23:06:00 43° 243° (WSW) 23:09:43 145.980
NANOSAT C BR1 20 Jan 23:02:29 23:05:59 25° 96° (E) 23:09:28 145.865
ISS 20 Jan 23:20:51 23:23:34 24° 337° (NNW) 23:26:18 145.825
SPROUT 20 Jan 23:22:43 23:26:57 72° 75° (ENE) 23:31:12 437.525
YUBILEINY 20 Jan 23:22:56 23:28:26 18° 61° (ENE) 23:33:53 435.215
JAS-2 20 Jan 23:25:15 23:32:27 76° 286° (WNW) 23:40:13 435.910
UKube-1 20 Jan 23:26:17 23:30:17 37° 70° (ENE) 23:34:17 .
DX 1 20 Jan 23:27:40 23:31:56 54° 73° (ENE) 23:36:13 434.975-435.025
BUGSAT 1 20 Jan 23:30:30 23:33:01 16° 93° (E) 23:35:31 437.445
CUBEBUG 1 20 Jan 23:42:50 23:46:43 30° 263° (W) 23:50:37 437.445
50 SAT 20 Jan 23:49:03 23:52:29 44° 261° (W) 23:55:57 437.505
QB50P1 20 Jan 23:54:32 23:58:45 75° 285° (WNW) 00:02:58 145.935-145.965
POLYITAN 1 20 Jan 23:58:50 00:03:03 66° 286° (WNW) 00:07:15 437.675
QB50P2 21 Jan 00:00:09 00:04:19 59° 286° (WNW) 00:08:29 145.880/145.840
AISAT 21 Jan 00:00:19 00:04:14 30° 263° (W) 00:08:09 437.250
BEESAT 3 21 Jan 00:01:42 00:05:02 24° 48° (NE) 00:08:21 437.485
PCSat 21 Jan 00:06:49 00:12:02 52° 113° (ESE) 00:17:18 145.827
RS-15 21 Jan 00:12:46 00:24:39 73° 306° (NW) 00:37:04 29.354- 29.394
Cosmos 2491 21 Jan 00:14:04 00:19:01 17° 77° (ENE) 00:23:59 435.465 / 435.565
POPSAT HIP 1 21 Jan 00:21:46 00:25:40 37° 289° (WNW) 00:29:34 437.405
Cosmos 2504 21 Jan 00:22:10 00:27:00 18° 64° (ENE) 00:31:41 435.465 / 435.565
DUCHIFAT 1 21 Jan 00:32:07 00:35:53 33° 290° (WNW) 00:39:39 145.980
VELOX 1 21 Jan 00:35:29 00:37:53 14° 268° (W) 00:40:17 145.980
NANOSAT C BR1 21 Jan 00:38:07 00:41:38 26° 291° (WNW) 00:45:10 145.865
AIST 1 21 Jan 00:38:14 00:42:27 57° 80° (E) 00:46:37
BEESAT 2 21 Jan 00:47:14 00:50:52 31° 50° (NE) 00:54:29 435.950
TISAT 1 21 Jan 00:49:07 00:53:18 85° 260° (W) 00:57:29 437.305
Oscar 19 21 Jan 00:51:34 00:56:16 34° 97° (E) 01:00:55 437.125/150
PHONESAT 2.4 21 Jan 00:59:09 01:00:36 15° 154° (SSE) 01:02:03 2401.200-2431.200
ISS 21 Jan 00:59:31 01:00:57 12° 357° (N) 01:02:22 145.825
UKube-1 21 Jan 01:03:24 01:06:25 19° 266° (W) 01:09:29 .
BUGSAT 1 21 Jan 01:04:46 01:08:31 38° 288° (WNW) 01:12:17 437.445
DX 1 21 Jan 01:06:20 01:08:26 13° 269° (W) 01:10:32 434.975-435.025
ITUPSAT 1 21 Jan 01:08:46 01:12:55 31° 68° (ENE) 01:17:05 437.325
Gurwin Techsat 1B 21 Jan 01:09:31 01:14:01 27° 95° (E) 01:18:29 435.225
JAS-2 21 Jan 01:12:33 01:16:28 16° 303° (WNW) 01:20:33 435.910
YUBILEINY 21 Jan 01:17:47 01:26:41 85° 83° (E) 01:35:27 435.215
MOZHAYETS 4 21 Jan 01:35:26 01:38:22 17° 64° (ENE) 01:41:19
BEESAT 3 21 Jan 01:39:07 01:42:40 31° 245° (WSW) 01:46:11 437.485
BEESAT 21 Jan 01:42:23 01:47:06 69° 74° (ENE) 01:51:51 436.000
SWISSCUBE 21 Jan 01:44:03 01:48:47 80° 75° (ENE) 01:53:35 437.505
AUBIESAT-1 21 Jan 01:49:50 01:51:24 12° 59° (ENE) 01:52:55 437.475
PCSat 21 Jan 01:51:19 01:55:44 25° 312° (NW) 02:00:10 145.827
Cosmos 2491 21 Jan 02:05:47 02:14:30 88° 97° (E) 02:23:17 435.465 / 435.565
KKS-1 21 Jan 02:12:17 02:14:25 13° 62° (ENE) 02:16:34 437.445
Cosmos 2504 21 Jan 02:13:56 02:21:19 78° 265° (W) 02:28:27 435.465 / 435.565
AIST 1 21 Jan 02:18:22 02:19:28 11° 276° (W) 02:20:33
